SYRACUSE 4A

Last updated on Sun Apr 12 2026 00:02:56 GMT+0000 (Coordinated Universal Time)

1 49333U 21095B 26101.52970410 .00000137 00000+0 00000+0 0 9996 2 49333 0.0189 242.0652 0001507 114.7772 79.0932 1.00270614 17273
UTC large
Height (km)
Speed (km/s)
/
Latitude / Longitude
Inclination (degrees)
Orbital Period (minutes)
Azimuth
Elevation
Range (km)
Doppler Factor

Next 0 passes for location: London (51.5072 / 0.1276)

Sorry there are no passes over London.
SYRACUSE 4A